Location: Tauranga
(37.6860°S, 176.1670°E)
Time: 20:11:16
(UTC+13:00)

ISS - Pass Details

Date: 01 February 2019
Orbit: 403 x 411 km, 51.6° (Epoch: 22 February)

Event Time Altitude Azimuth Distance (km) Brightness Sun altitude
Exits shadow 03:46:55 19° 98° (E) 1,057 -1.3 -26.1°
Drops below altitude 10° 03:48:11 10° 112° (ESE) 1,495 -0.2 -25.9°
Sets 03:50:24 0° 121° (ESE) 2,363 1.2 -25.7°
